User: anonymous   Login
Location: Newark
(54.3386°S, 169.8415°W)
Time: 00:25:28
(UTC+00:00)
Language:

deb Explorer IX - Orbit

View from above orbital plane
View from above orbital plane
View from above satellite
View from above satellite

Ground track
Ground track

The orbit data is extracted from the following two-line orbital elements,

1    85U 61004C   19293.11675271  .00000157  00000-0  55131-4 0  9990
2    85  38.7710 171.3267 0389963 331.5921  26.4058 14.19884590896759
Epoch (UTC): 20 October 2019 02:48:07
Eccentricity: 0.0389963
inclination: 38.7710°
perigee height: 545 km
apogee height: 1106 km
right ascension of ascending node: 171.3267°
argument of perigee: 331.5921°
revolutions per day: 14.19884590
mean anomaly at epoch: 26.4058°
orbit number at epoch: 89675

The dashed part of the orbit path shows where the satellite is in the earth's shadow,  

DLR